timestamp,surface_pressure_avg,surface_temp_avg,battery_voltage,lat,long
2020-10-07 00:09:01+00:00,273.5464,14.0,12.73,47.84626,-54.09684
2020-10-07 00:19:01+00:00,272.5098,14.0,12.73,47.84626,-54.09684
2020-10-07 00:29:01+00:00,273.7864,14.0,12.73,47.84626,-54.09684
2020-10-07 00:39:01+00:00,280.2447,14.0,12.73,47.84626,-54.09684
2020-10-07 00:49:01+00:00,288.1014,14.0,12.73,47.84626,-54.09684
2020-10-07 00:59:01+00:00,289.8796,13.99,12.73,47.84626,-54.09684
2020-10-07 01:09:01+00:00,294.008,13.9,12.73,47.84626,-54.09684
2020-10-07 01:19:01+00:00,298.2447,13.9,12.73,47.84626,-54.09684
2020-10-07 01:29:01+00:00,302.303,13.9,12.73,47.84626,-54.09684
2020-10-07 01:39:01+00:00,299.4846,13.9,12.73,47.84626,-54.09684
2020-10-07 01:49:01+00:00,302.6347,13.9,12.73,47.84626,-54.09684
2020-10-07 01:59:01+00:00,307.6547,13.9,12.73,47.84626,-54.09684
2020-10-07 02:09:01+00:00,307.418,13.89,12.73,47.84626,-54.09684
2020-10-07 02:19:01+00:00,303.168,13.86,12.73,47.84626,-54.09684
2020-10-07 02:29:01+00:00,307.688,13.8,12.73,47.84626,-54.09684
2020-10-07 02:39:01+00:00,312.2197,13.8,12.73,47.84626,-54.09684
2020-10-07 02:49:01+00:00,311.4797,13.8,12.73,47.84626,-54.09684
2020-10-07 02:59:01+00:00,308.1346,13.8,12.73,47.84626,-54.09684
2020-10-07 03:09:01+00:00,310.678,13.8,12.73,47.84626,-54.09684
2020-10-07 03:19:01+00:00,312.6047,13.8,12.73,47.84626,-54.09684
2020-10-07 03:29:01+00:00,307.8479,13.8,12.73,47.84626,-54.09684
2020-10-07 03:39:01+00:00,301.9997,13.83,12.73,47.84626,-54.09684
2020-10-07 03:49:01+00:00,301.868,13.89,12.73,47.84626,-54.09684
2020-10-07 03:59:01+00:00,300.093,13.9,12.73,47.84626,-54.09684
2020-10-07 04:09:01+00:00,291.9181,13.9,12.73,47.84626,-54.09684
2020-10-07 04:19:01+00:00,289.4047,13.9,12.73,47.84626,-54.09684
2020-10-07 04:29:01+00:00,288.2598,13.9,12.73,47.84626,-54.09684
2020-10-07 04:39:01+00:00,282.1897,13.9,12.73,47.84626,-54.09684
2020-10-07 04:49:01+00:00,276.7848,13.9,12.73,47.84626,-54.09684
2020-10-07 04:59:01+00:00,275.2914,13.9,12.73,47.84626,-54.09684
2020-10-07 05:09:01+00:00,272.7664,13.9,12.73,47.84626,-54.09684
2020-10-07 05:19:01+00:00,267.0614,13.9,12.73,47.84626,-54.09684
2020-10-07 05:29:01+00:00,260.8931,13.9,12.73,47.84626,-54.09684
2020-10-07 05:39:01+00:00,255.0714,13.9,12.73,47.84626,-54.09684
2020-10-07 05:49:01+00:00,246.5414,13.9,12.73,47.84626,-54.09684
2020-10-07 05:59:01+00:00,240.8364,13.9,12.73,47.84626,-54.09684
2020-10-07 06:09:01+00:00,238.3297,13.9,12.73,47.84626,-54.09684
2020-10-07 06:19:01+00:00,230.1448,13.9,12.73,47.84626,-54.09684
2020-10-07 06:29:01+00:00,219.4814,13.9,12.73,47.84626,-54.09684
2020-10-07 06:39:01+00:00,213.2047,13.9,12.73,47.84626,-54.09684
2020-10-07 06:49:01+00:00,210.7048,13.9,12.73,47.84626,-54.09684
2020-10-07 06:59:01+00:00,206.2332,13.9,12.73,47.84626,-54.09684
2020-10-07 07:09:01+00:00,199.9948,13.9,12.73,47.84626,-54.09684
2020-10-07 07:19:01+00:00,194.8065,13.9,12.73,47.84626,-54.09684
2020-10-07 07:29:01+00:00,191.2881,13.89,12.73,47.84626,-54.09684
2020-10-07 07:39:01+00:00,187.6798,13.9,12.73,47.84626,-54.09684
2020-10-07 07:49:01+00:00,183.7215,13.89,12.73,47.84626,-54.09684
2020-10-07 07:59:01+00:00,183.4015,13.87,12.73,47.84626,-54.09684
2020-10-07 08:09:01+00:00,183.8431,13.85,12.73,47.84626,-54.09684
2020-10-07 08:19:01+00:00,184.6114,13.84,12.65,47.84626,-54.09684
2020-10-07 08:29:01+00:00,184.7265,13.8,12.65,47.84626,-54.09684
2020-10-07 08:39:01+00:00,186.1148,13.8,12.65,47.84626,-54.09684
2020-10-07 08:49:01+00:00,189.5265,13.8,12.65,47.84626,-54.09684
2020-10-07 08:59:01+00:00,191.7515,13.79,12.65,47.84626,-54.09684
2020-10-07 09:09:01+00:00,195.5898,13.72,12.65,47.84626,-54.09684
2020-10-07 09:19:01+00:00,199.4431,13.7,12.65,47.84626,-54.09684
2020-10-07 09:29:01+00:00,203.9748,13.7,12.65,47.84626,-54.09684
2020-10-07 09:39:01+00:00,209.6697,13.7,12.65,47.84626,-54.09684
2020-10-07 09:49:01+00:00,213.7964,13.7,12.65,47.84626,-54.09684
2020-10-07 09:59:01+00:00,218.0865,13.7,12.65,47.84626,-54.09684
2020-10-07 10:09:01+00:00,226.1965,13.7,12.65,47.84626,-54.09684
2020-10-07 10:19:01+00:00,234.8114,13.78,12.73,47.84626,-54.09684
2020-10-07 10:29:01+00:00,238.1331,13.79,12.73,47.84626,-54.09684
2020-10-07 10:39:01+00:00,240.718,13.79,12.73,47.84626,-54.09684
2020-10-07 10:49:01+00:00,246.5764,13.79,12.73,47.84626,-54.09684
2020-10-07 10:59:01+00:00,252.7831,13.79,12.73,47.84626,-54.09684
2020-10-07 11:09:01+00:00,256.8931,13.79,12.73,47.84626,-54.09684
2020-10-07 11:19:01+00:00,259.883,13.79,12.97,47.84626,-54.09684
2020-10-07 11:29:01+00:00,266.1731,13.8,12.97,47.84626,-54.09684
2020-10-07 11:39:01+00:00,269.2664,13.8,12.97,47.84626,-54.09684
2020-10-07 11:49:01+00:00,269.2697,13.8,12.97,47.84626,-54.09684
2020-10-07 11:59:01+00:00,271.6514,13.8,12.97,47.84626,-54.09684
2020-10-07 12:09:01+00:00,278.4414,13.83,12.97,47.84626,-54.09684
2020-10-07 12:19:01+00:00,281.8664,13.85,13.44,47.84626,-54.09684
2020-10-07 12:29:01+00:00,286.0997,13.85,13.44,47.84626,-54.09684
2020-10-07 12:39:01+00:00,292.7547,13.87,13.44,47.84626,-54.09684
2020-10-07 12:49:01+00:00,299.1864,13.87,13.44,47.84626,-54.09684
2020-10-07 12:59:01+00:00,301.9397,13.87,13.44,47.84626,-54.09684
2020-10-07 13:09:01+00:00,308.868,13.87,13.44,47.84626,-54.09684
2020-10-07 13:19:01+00:00,320.7396,13.88,14.0,47.84626,-54.09684
2020-10-07 13:29:01+00:00,326.1514,13.87,14.0,47.84626,-54.09684
2020-10-07 13:39:01+00:00,325.713,13.88,14.0,47.84626,-54.09684
2020-10-07 13:49:01+00:00,330.7813,13.89,14.0,47.84626,-54.09684
2020-10-07 13:59:01+00:00,340.2263,13.9,14.0,47.84626,-54.09684
2020-10-07 14:09:01+00:00,339.5329,13.9,14.0,47.84626,-54.09684
2020-10-07 14:19:01+00:00,336.478,13.9,14.0,47.84626,-54.09684
2020-10-07 14:29:01+00:00,340.4746,13.9,14.0,47.84626,-54.09684
2020-10-07 14:39:01+00:00,345.1213,13.9,14.0,47.84626,-54.09684
2020-10-07 14:49:01+00:00,341.8962,13.9,14.0,47.84626,-54.09684
2020-10-07 14:59:01+00:00,340.3763,13.9,14.0,47.84626,-54.09684
2020-10-07 15:09:01+00:00,341.223,13.9,14.0,47.84626,-54.09684
2020-10-07 15:19:01+00:00,339.2813,13.9,14.08,47.84626,-54.09684
2020-10-07 15:29:01+00:00,333.8163,13.9,14.08,47.84626,-54.09684
2020-10-07 15:39:01+00:00,335.1979,13.9,14.08,47.84626,-54.09684
2020-10-07 15:49:01+00:00,337.9846,13.9,14.08,47.84626,-54.09684
2020-10-07 15:59:01+00:00,332.8797,13.9,14.08,47.84626,-54.09684
2020-10-07 16:09:01+00:00,328.1746,13.9,14.08,47.84626,-54.09684
2020-10-07 16:19:01+00:00,329.3746,13.9,13.92,47.84626,-54.09684
2020-10-07 16:29:01+00:00,332.6280000000001,13.9,13.92,47.84626,-54.09684
2020-10-07 16:39:01+00:00,331.9213,13.9,13.92,47.84626,-54.09684
2020-10-07 16:49:01+00:00,325.7263,13.9,13.92,47.84626,-54.09684
2020-10-07 16:59:01+00:00,314.653,13.9,13.92,47.84626,-54.09684
2020-10-07 17:09:01+00:00,309.738,13.9,13.92,47.84626,-54.09684
2020-10-07 17:19:01+00:00,309.8547,13.9,13.68,47.84626,-54.09684
2020-10-07 17:29:01+00:00,300.8814,13.9,13.68,47.84626,-54.09684
2020-10-07 17:39:01+00:00,290.0964,13.9,13.68,47.84626,-54.09684
2020-10-07 17:49:01+00:00,286.1797,13.9,13.68,47.84626,-54.09684
2020-10-07 17:59:01+00:00,285.3798,13.9,13.68,47.84626,-54.09684
2020-10-07 18:09:01+00:00,277.1114,13.9,13.68,47.84626,-54.09684
2020-10-07 18:19:01+00:00,271.5614,13.9,14.0,47.84626,-54.09684
2020-10-07 18:29:01+00:00,270.4698,13.91,14.0,47.84626,-54.09684
2020-10-07 18:39:01+00:00,263.1414,13.93,14.0,47.84626,-54.09684
2020-10-07 18:49:01+00:00,247.9581,13.95,14.0,47.84626,-54.09684
2020-10-07 18:59:01+00:00,240.6748,13.96,14.0,47.84626,-54.09684
2020-10-07 19:09:01+00:00,238.5297,13.95,14.0,47.84626,-54.09684
2020-10-07 19:19:01+00:00,230.4015,13.95,13.53,47.84626,-54.09684
2020-10-07 19:29:01+00:00,220.1781,13.96,13.53,47.84626,-54.09684
2020-10-07 19:39:01+00:00,217.9531,13.96,13.53,47.84626,-54.09684
2020-10-07 19:49:01+00:00,218.0481,13.96,13.53,47.84626,-54.09684
2020-10-07 19:59:01+00:00,215.3031,13.96,13.53,47.84626,-54.09684
2020-10-07 20:09:01+00:00,213.4081,13.96,13.53,47.84626,-54.09684
2020-10-07 20:19:01+00:00,213.7765,13.95,13.21,47.84626,-54.09684
2020-10-07 20:29:01+00:00,213.6214,13.93,13.21,47.84626,-54.09684
2020-10-07 20:39:01+00:00,210.7565,13.93,13.21,47.84626,-54.09684
2020-10-07 20:49:01+00:00,211.4398,13.91,13.21,47.84626,-54.09684
2020-10-07 20:59:01+00:00,215.7631,13.9,13.21,47.84626,-54.09684
2020-10-07 21:09:01+00:00,220.1864,13.9,13.21,47.84626,-54.09684
2020-10-07 21:19:01+00:00,222.5264,13.9,12.81,47.84626,-54.09684
2020-10-07 21:29:01+00:00,224.3065,13.91,12.81,47.84626,-54.09684
2020-10-07 21:39:01+00:00,229.4547,13.9,12.81,47.84626,-54.09684
2020-10-07 21:49:01+00:00,235.1681,13.9,12.81,47.84626,-54.09684
2020-10-07 21:59:01+00:00,239.5948,13.9,12.81,47.84626,-54.09684
2020-10-07 22:09:01+00:00,250.3131,13.9,12.81,47.84626,-54.09684
2020-10-07 22:19:01+00:00,255.8765,13.9,12.73,47.84626,-54.09684
2020-10-07 22:29:01+00:00,256.0981,13.9,12.73,47.84626,-54.09684
2020-10-07 22:39:01+00:00,256.8581,13.9,12.73,47.84626,-54.09684
2020-10-07 22:49:01+00:00,262.5847,13.9,12.73,47.84626,-54.09684
2020-10-07 22:59:01+00:00,265.3848,13.9,12.73,47.84626,-54.09684
2020-10-07 23:09:01+00:00,264.9531,13.9,12.73,47.84626,-54.09684
2020-10-07 23:19:01+00:00,268.0714,13.9,12.73,47.84626,-54.09684
2020-10-07 23:29:01+00:00,269.3514,13.9,12.73,47.84626,-54.09684
2020-10-07 23:39:01+00:00,268.9364,13.88,12.73,47.84626,-54.09684
2020-10-07 23:49:01+00:00,271.0213,13.88,12.73,47.84626,-54.09684
2020-10-07 23:59:01+00:00,276.9181,13.88,12.73,47.84626,-54.09684
